Index of /20260426/WXO-DD/model_caps/3km/00/020
Name Last modified Size Description
Parent Directory -
20260426T00Z_MSC_CAPS_AbsoluteVorticity_IsbL-0250_RLatLon0.03_PT020H.grib2 2026-04-26 06:10 1.0M
20260426T00Z_MSC_CAPS_AbsoluteVorticity_IsbL-0500_RLatLon0.03_PT020H.grib2 2026-04-26 06:10 1.1M
20260426T00Z_MSC_CAPS_AbsoluteVorticity_IsbL-0700_RLatLon0.03_PT020H.grib2 2026-04-26 06:10 1.0M
20260426T00Z_MSC_CAPS_AbsoluteVorticity_IsbL-0850_RLatLon0.03_PT020H.grib2 2026-04-26 06:10 1.2M
20260426T00Z_MSC_CAPS_AbsoluteVorticity_IsbL-1000_RLatLon0.03_PT020H.grib2 2026-04-26 06:10 1.4M
20260426T00Z_MSC_CAPS_AirDensity_AGL-120m_RLatLon0.03_PT020H.grib2 2026-04-26 06:10 1.4M
20260426T00Z_MSC_CAPS_AirDensity_AGL-40m_RLatLon0.03_PT020H.grib2 2026-04-26 06:10 1.4M
20260426T00Z_MSC_CAPS_AirDensity_AGL-80m_RLatLon0.03_PT020H.grib2 2026-04-26 06:10 1.4M
20260426T00Z_MSC_CAPS_AirTemp_AGL-120m_RLatLon0.03_PT020H.grib2 2026-04-26 06:10 1.8M
20260426T00Z_MSC_CAPS_AirTemp_AGL-2m_RLatLon0.03_PT020H.grib2 2026-04-26 06:10 1.7M
20260426T00Z_MSC_CAPS_AirTemp_AGL-40m_RLatLon0.03_PT020H.grib2 2026-04-26 06:10 1.9M
20260426T00Z_MSC_CAPS_AirTemp_AGL-80m_RLatLon0.03_PT020H.grib2 2026-04-26 06:10 1.8M
20260426T00Z_MSC_CAPS_AirTemp_IsbL-0050_RLatLon0.03_PT020H.grib2 2026-04-26 06:10 692K
20260426T00Z_MSC_CAPS_AirTemp_IsbL-0100_RLatLon0.03_PT020H.grib2 2026-04-26 06:10 782K
20260426T00Z_MSC_CAPS_AirTemp_IsbL-0150_RLatLon0.03_PT020H.grib2 2026-04-26 06:10 733K
20260426T00Z_MSC_CAPS_AirTemp_IsbL-0175_RLatLon0.03_PT020H.grib2 2026-04-26 06:10 757K
20260426T00Z_MSC_CAPS_AirTemp_IsbL-0200_RLatLon0.03_PT020H.grib2 2026-04-26 06:10 779K
20260426T00Z_MSC_CAPS_AirTemp_IsbL-0225_RLatLon0.03_PT020H.grib2 2026-04-26 06:10 782K
20260426T00Z_MSC_CAPS_AirTemp_IsbL-0250_RLatLon0.03_PT020H.grib2 2026-04-26 06:10 1.0M
20260426T00Z_MSC_CAPS_AirTemp_IsbL-0275_RLatLon0.03_PT020H.grib2 2026-04-26 06:10 1.0M
20260426T00Z_MSC_CAPS_AirTemp_IsbL-0300_RLatLon0.03_PT020H.grib2 2026-04-26 06:10 1.0M
20260426T00Z_MSC_CAPS_AirTemp_IsbL-0350_RLatLon0.03_PT020H.grib2 2026-04-26 06:10 744K
20260426T00Z_MSC_CAPS_AirTemp_IsbL-0400_RLatLon0.03_PT020H.grib2 2026-04-26 06:10 747K
20260426T00Z_MSC_CAPS_AirTemp_IsbL-0450_RLatLon0.03_PT020H.grib2 2026-04-26 06:10 764K
20260426T00Z_MSC_CAPS_AirTemp_IsbL-0500_RLatLon0.03_PT020H.grib2 2026-04-26 06:10 786K
20260426T00Z_MSC_CAPS_AirTemp_IsbL-0550_RLatLon0.03_PT020H.grib2 2026-04-26 06:10 798K
20260426T00Z_MSC_CAPS_AirTemp_IsbL-0600_RLatLon0.03_PT020H.grib2 2026-04-26 06:10 813K
20260426T00Z_MSC_CAPS_AirTemp_IsbL-0650_RLatLon0.03_PT020H.grib2 2026-04-26 06:10 837K
20260426T00Z_MSC_CAPS_AirTemp_IsbL-0700_RLatLon0.03_PT020H.grib2 2026-04-26 06:10 866K
20260426T00Z_MSC_CAPS_AirTemp_IsbL-0750_RLatLon0.03_PT020H.grib2 2026-04-26 06:10 1.0M
20260426T00Z_MSC_CAPS_AirTemp_IsbL-0800_RLatLon0.03_PT020H.grib2 2026-04-26 06:10 1.0M
20260426T00Z_MSC_CAPS_AirTemp_IsbL-0850_RLatLon0.03_PT020H.grib2 2026-04-26 06:10 1.1M
20260426T00Z_MSC_CAPS_AirTemp_IsbL-0875_RLatLon0.03_PT020H.grib2 2026-04-26 06:10 1.1M
20260426T00Z_MSC_CAPS_AirTemp_IsbL-0900_RLatLon0.03_PT020H.grib2 2026-04-26 06:10 1.1M
20260426T00Z_MSC_CAPS_AirTemp_IsbL-0925_RLatLon0.03_PT020H.grib2 2026-04-26 06:10 1.1M
20260426T00Z_MSC_CAPS_AirTemp_IsbL-0950_RLatLon0.03_PT020H.grib2 2026-04-26 06:10 1.1M
20260426T00Z_MSC_CAPS_AirTemp_IsbL-0970_RLatLon0.03_PT020H.grib2 2026-04-26 06:10 1.1M
20260426T00Z_MSC_CAPS_AirTemp_IsbL-0985_RLatLon0.03_PT020H.grib2 2026-04-26 06:10 1.1M
20260426T00Z_MSC_CAPS_AirTemp_IsbL-1000_RLatLon0.03_PT020H.grib2 2026-04-26 06:10 1.0M
20260426T00Z_MSC_CAPS_AirTemp_IsbL-1015_RLatLon0.03_PT020H.grib2 2026-04-26 06:10 1.1M
20260426T00Z_MSC_CAPS_Albedo_Sfc_RLatLon0.03_PT020H.grib2 2026-04-26 06:10 2.7M
20260426T00Z_MSC_CAPS_CAPE_Sfc_RLatLon0.03_PT020H.grib2 2026-04-26 06:10 99K
20260426T00Z_MSC_CAPS_CloudWater_EAtm_RLatLon0.03_PT020H.grib2 2026-04-26 06:10 1.4M
20260426T00Z_MSC_CAPS_ConvectivePrecip-Accum_Sfc_RLatLon0.03_PT020H.grib2 2026-04-26 06:10 3.6M
20260426T00Z_MSC_CAPS_DewPointDepression_AGL-120m_RLatLon0.03_PT020H.grib2 2026-04-26 06:10 2.1M
20260426T00Z_MSC_CAPS_DewPointDepression_AGL-2m_RLatLon0.03_PT020H.grib2 2026-04-26 06:10 2.2M
20260426T00Z_MSC_CAPS_DewPointDepression_AGL-40m_RLatLon0.03_PT020H.grib2 2026-04-26 06:10 2.1M
20260426T00Z_MSC_CAPS_DewPointDepression_AGL-80m_RLatLon0.03_PT020H.grib2 2026-04-26 06:10 2.1M
20260426T00Z_MSC_CAPS_DewPointDepression_IsbL-0050_RLatLon0.03_PT020H.grib2 2026-04-26 06:10 4.5K
20260426T00Z_MSC_CAPS_DewPointDepression_IsbL-0100_RLatLon0.03_PT020H.grib2 2026-04-26 06:10 120K
20260426T00Z_MSC_CAPS_DewPointDepression_IsbL-0150_RLatLon0.03_PT020H.grib2 2026-04-26 06:10 136K
20260426T00Z_MSC_CAPS_DewPointDepression_IsbL-0175_RLatLon0.03_PT020H.grib2 2026-04-26 06:10 256K
20260426T00Z_MSC_CAPS_DewPointDepression_IsbL-0200_RLatLon0.03_PT020H.grib2 2026-04-26 06:10 421K
20260426T00Z_MSC_CAPS_DewPointDepression_IsbL-0225_RLatLon0.03_PT020H.grib2 2026-04-26 06:10 645K
20260426T00Z_MSC_CAPS_DewPointDepression_IsbL-0250_RLatLon0.03_PT020H.grib2 2026-04-26 06:10 848K
20260426T00Z_MSC_CAPS_DewPointDepression_IsbL-0275_RLatLon0.03_PT020H.grib2 2026-04-26 06:10 1.0M
20260426T00Z_MSC_CAPS_DewPointDepression_IsbL-0300_RLatLon0.03_PT020H.grib2 2026-04-26 06:10 1.0M
20260426T00Z_MSC_CAPS_DewPointDepression_IsbL-0350_RLatLon0.03_PT020H.grib2 2026-04-26 06:10 1.1M
20260426T00Z_MSC_CAPS_DewPointDepression_IsbL-0400_RLatLon0.03_PT020H.grib2 2026-04-26 06:10 1.1M
20260426T00Z_MSC_CAPS_DewPointDepression_IsbL-0450_RLatLon0.03_PT020H.grib2 2026-04-26 06:10 1.1M
20260426T00Z_MSC_CAPS_DewPointDepression_IsbL-0500_RLatLon0.03_PT020H.grib2 2026-04-26 06:10 1.2M
20260426T00Z_MSC_CAPS_DewPointDepression_IsbL-0550_RLatLon0.03_PT020H.grib2 2026-04-26 06:10 1.2M
20260426T00Z_MSC_CAPS_DewPointDepression_IsbL-0600_RLatLon0.03_PT020H.grib2 2026-04-26 06:10 1.3M
20260426T00Z_MSC_CAPS_DewPointDepression_IsbL-0650_RLatLon0.03_PT020H.grib2 2026-04-26 06:10 1.3M
20260426T00Z_MSC_CAPS_DewPointDepression_IsbL-0700_RLatLon0.03_PT020H.grib2 2026-04-26 06:11 1.3M
20260426T00Z_MSC_CAPS_DewPointDepression_IsbL-0750_RLatLon0.03_PT020H.grib2 2026-04-26 06:11 1.3M
20260426T00Z_MSC_CAPS_DewPointDepression_IsbL-0800_RLatLon0.03_PT020H.grib2 2026-04-26 06:11 1.3M
20260426T00Z_MSC_CAPS_DewPointDepression_IsbL-0850_RLatLon0.03_PT020H.grib2 2026-04-26 06:11 1.4M
20260426T00Z_MSC_CAPS_DewPointDepression_IsbL-0875_RLatLon0.03_PT020H.grib2 2026-04-26 06:11 1.4M
20260426T00Z_MSC_CAPS_DewPointDepression_IsbL-0900_RLatLon0.03_PT020H.grib2 2026-04-26 06:11 1.4M
20260426T00Z_MSC_CAPS_DewPointDepression_IsbL-0925_RLatLon0.03_PT020H.grib2 2026-04-26 06:11 1.3M
20260426T00Z_MSC_CAPS_DewPointDepression_IsbL-0950_RLatLon0.03_PT020H.grib2 2026-04-26 06:11 1.3M
20260426T00Z_MSC_CAPS_DewPointDepression_IsbL-0970_RLatLon0.03_PT020H.grib2 2026-04-26 06:11 1.3M
20260426T00Z_MSC_CAPS_DewPointDepression_IsbL-0985_RLatLon0.03_PT020H.grib2 2026-04-26 06:11 1.4M
20260426T00Z_MSC_CAPS_DewPointDepression_IsbL-1000_RLatLon0.03_PT020H.grib2 2026-04-26 06:11 1.3M
20260426T00Z_MSC_CAPS_DewPointDepression_IsbL-1015_RLatLon0.03_PT020H.grib2 2026-04-26 06:11 1.3M
20260426T00Z_MSC_CAPS_DewPoint_AGL-120m_RLatLon0.03_PT020H.grib2 2026-04-26 06:10 3.7M
20260426T00Z_MSC_CAPS_DewPoint_AGL-2m_RLatLon0.03_PT020H.grib2 2026-04-26 06:10 2.1M
20260426T00Z_MSC_CAPS_DewPoint_AGL-40m_RLatLon0.03_PT020H.grib2 2026-04-26 06:10 3.7M
20260426T00Z_MSC_CAPS_DewPoint_AGL-80m_RLatLon0.03_PT020H.grib2 2026-04-26 06:10 3.7M
20260426T00Z_MSC_CAPS_DownwardLongwaveRadiationFlux-Accum_Sfc_RLatLon0.03_PT020H.grib2 2026-04-26 06:11 2.2M
20260426T00Z_MSC_CAPS_DownwardShortwaveRadiationFlux-Accum_NTAtm_RLatLon0.03_PT020H.grib2 2026-04-26 06:11 459K
20260426T00Z_MSC_CAPS_DownwardShortwaveRadiationFlux-Accum_Sfc_RLatLon0.03_PT020H.grib2 2026-04-26 06:11 3.0M
20260426T00Z_MSC_CAPS_FreezingRain-Accum_Sfc_RLatLon0.03_PT020H.grib2 2026-04-26 06:11 579K
20260426T00Z_MSC_CAPS_GeopotentialHeight_IsbL-0050_RLatLon0.03_PT020H.grib2 2026-04-26 06:11 830K
20260426T00Z_MSC_CAPS_GeopotentialHeight_IsbL-0100_RLatLon0.03_PT020H.grib2 2026-04-26 06:11 813K
20260426T00Z_MSC_CAPS_GeopotentialHeight_IsbL-0150_RLatLon0.03_PT020H.grib2 2026-04-26 06:11 599K
20260426T00Z_MSC_CAPS_GeopotentialHeight_IsbL-0175_RLatLon0.03_PT020H.grib2 2026-04-26 06:11 706K
20260426T00Z_MSC_CAPS_GeopotentialHeight_IsbL-0200_RLatLon0.03_PT020H.grib2 2026-04-26 06:11 718K
20260426T00Z_MSC_CAPS_GeopotentialHeight_IsbL-0225_RLatLon0.03_PT020H.grib2 2026-04-26 06:11 735K
20260426T00Z_MSC_CAPS_GeopotentialHeight_IsbL-0250_RLatLon0.03_PT020H.grib2 2026-04-26 06:11 749K
20260426T00Z_MSC_CAPS_GeopotentialHeight_IsbL-0275_RLatLon0.03_PT020H.grib2 2026-04-26 06:11 762K
20260426T00Z_MSC_CAPS_GeopotentialHeight_IsbL-0300_RLatLon0.03_PT020H.grib2 2026-04-26 06:11 771K
20260426T00Z_MSC_CAPS_GeopotentialHeight_IsbL-0350_RLatLon0.03_PT020H.grib2 2026-04-26 06:11 778K
20260426T00Z_MSC_CAPS_GeopotentialHeight_IsbL-0400_RLatLon0.03_PT020H.grib2 2026-04-26 06:11 770K
20260426T00Z_MSC_CAPS_GeopotentialHeight_IsbL-0450_RLatLon0.03_PT020H.grib2 2026-04-26 06:11 762K
20260426T00Z_MSC_CAPS_GeopotentialHeight_IsbL-0500_RLatLon0.03_PT020H.grib2 2026-04-26 06:11 755K
20260426T00Z_MSC_CAPS_GeopotentialHeight_IsbL-0550_RLatLon0.03_PT020H.grib2 2026-04-26 06:11 636K
20260426T00Z_MSC_CAPS_GeopotentialHeight_IsbL-0600_RLatLon0.03_PT020H.grib2 2026-04-26 06:11 632K
20260426T00Z_MSC_CAPS_GeopotentialHeight_IsbL-0650_RLatLon0.03_PT020H.grib2 2026-04-26 06:11 630K
20260426T00Z_MSC_CAPS_GeopotentialHeight_IsbL-0700_RLatLon0.03_PT020H.grib2 2026-04-26 06:11 625K
20260426T00Z_MSC_CAPS_GeopotentialHeight_IsbL-0750_RLatLon0.03_PT020H.grib2 2026-04-26 06:11 622K
20260426T00Z_MSC_CAPS_GeopotentialHeight_IsbL-0800_RLatLon0.03_PT020H.grib2 2026-04-26 06:11 808K
20260426T00Z_MSC_CAPS_GeopotentialHeight_IsbL-0850_RLatLon0.03_PT020H.grib2 2026-04-26 06:11 818K
20260426T00Z_MSC_CAPS_GeopotentialHeight_IsbL-0875_RLatLon0.03_PT020H.grib2 2026-04-26 06:11 827K
20260426T00Z_MSC_CAPS_GeopotentialHeight_IsbL-0900_RLatLon0.03_PT020H.grib2 2026-04-26 06:11 836K
20260426T00Z_MSC_CAPS_GeopotentialHeight_IsbL-0925_RLatLon0.03_PT020H.grib2 2026-04-26 06:11 846K
20260426T00Z_MSC_CAPS_GeopotentialHeight_IsbL-0950_RLatLon0.03_PT020H.grib2 2026-04-26 06:11 666K
20260426T00Z_MSC_CAPS_GeopotentialHeight_IsbL-0970_RLatLon0.03_PT020H.grib2 2026-04-26 06:11 675K
20260426T00Z_MSC_CAPS_GeopotentialHeight_IsbL-0985_RLatLon0.03_PT020H.grib2 2026-04-26 06:11 681K
20260426T00Z_MSC_CAPS_GeopotentialHeight_IsbL-1000_RLatLon0.03_PT020H.grib2 2026-04-26 06:11 687K
20260426T00Z_MSC_CAPS_GeopotentialHeight_IsbL-1015_RLatLon0.03_PT020H.grib2 2026-04-26 06:11 695K
20260426T00Z_MSC_CAPS_GeopotentialHeight_Sfc_RLatLon0.03_PT020H.grib2 2026-04-26 06:11 1.0M
20260426T00Z_MSC_CAPS_IcePellets-Accum_Sfc_RLatLon0.03_PT020H.grib2 2026-04-26 06:11 33K
20260426T00Z_MSC_CAPS_LatentHeatNetFlux_Sfc_RLatLon0.03_PT020H.grib2 2026-04-26 06:11 1.9M
20260426T00Z_MSC_CAPS_LiftedIndex-MU-VT_IsbL-0500_RLatLon0.03_PT020H.grib2 2026-04-26 06:11 3.3M
20260426T00Z_MSC_CAPS_MixedLayerThickness_Sfc_RLatLon0.03_PT020H.nc 2026-04-26 06:11 17M
20260426T00Z_MSC_CAPS_NetLongwaveRadiationFlux-Accum_Sfc_RLatLon0.03_PT020H.grib2 2026-04-26 06:11 2.9M
20260426T00Z_MSC_CAPS_NetShortwaveRadiationFlux-Accum_Sfc_RLatLon0.03_PT020H.grib2 2026-04-26 06:11 3.0M
20260426T00Z_MSC_CAPS_PlanetaryBoundaryLayerHeight_Sfc_RLatLon0.03_PT020H.grib2 2026-04-26 06:11 2.9M
20260426T00Z_MSC_CAPS_Precip-Accum_Sfc_RLatLon0.03_PT020H.grib2 2026-04-26 06:11 4.5M
20260426T00Z_MSC_CAPS_PrecipRate_Sfc_RLatLon0.03_PT020H.grib2 2026-04-26 06:11 584K
20260426T00Z_MSC_CAPS_PrecipType-Instant_Sfc_RLatLon0.03_PT020H.grib2 2026-04-26 06:11 1.8M
20260426T00Z_MSC_CAPS_Pressure_MSL_RLatLon0.03_PT020H.grib2 2026-04-26 06:11 926K
20260426T00Z_MSC_CAPS_Pressure_Sfc_RLatLon0.03_PT020H.grib2 2026-04-26 06:11 1.2M
20260426T00Z_MSC_CAPS_RadiativeTemp_Sfc_RLatLon0.03_PT020H.grib2 2026-04-26 06:11 2.1M
20260426T00Z_MSC_CAPS_Rain-Accum_Sfc_RLatLon0.03_PT020H.grib2 2026-04-26 06:11 1.9M
20260426T00Z_MSC_CAPS_RelativeHumidity_AGL-120m_RLatLon0.03_PT020H.grib2 2026-04-26 06:11 2.9M
20260426T00Z_MSC_CAPS_RelativeHumidity_AGL-2m_RLatLon0.03_PT020H.grib2 2026-04-26 06:11 3.0M
20260426T00Z_MSC_CAPS_RelativeHumidity_AGL-40m_RLatLon0.03_PT020H.grib2 2026-04-26 06:11 2.9M
20260426T00Z_MSC_CAPS_RelativeHumidity_AGL-80m_RLatLon0.03_PT020H.grib2 2026-04-26 06:11 2.9M
20260426T00Z_MSC_CAPS_RelativeHumidity_IsbL-0050_RLatLon0.03_PT020H.grib2 2026-04-26 06:11 1.0M
20260426T00Z_MSC_CAPS_RelativeHumidity_IsbL-0100_RLatLon0.03_PT020H.grib2 2026-04-26 06:11 857K
20260426T00Z_MSC_CAPS_RelativeHumidity_IsbL-0150_RLatLon0.03_PT020H.grib2 2026-04-26 06:11 757K
20260426T00Z_MSC_CAPS_RelativeHumidity_IsbL-0175_RLatLon0.03_PT020H.grib2 2026-04-26 06:11 503K
20260426T00Z_MSC_CAPS_RelativeHumidity_IsbL-0200_RLatLon0.03_PT020H.grib2 2026-04-26 06:11 663K
20260426T00Z_MSC_CAPS_RelativeHumidity_IsbL-0225_RLatLon0.03_PT020H.grib2 2026-04-26 06:11 870K
20260426T00Z_MSC_CAPS_RelativeHumidity_IsbL-0250_RLatLon0.03_PT020H.grib2 2026-04-26 06:11 1.1M
20260426T00Z_MSC_CAPS_RelativeHumidity_IsbL-0275_RLatLon0.03_PT020H.grib2 2026-04-26 06:11 1.4M
20260426T00Z_MSC_CAPS_RelativeHumidity_IsbL-0300_RLatLon0.03_PT020H.grib2 2026-04-26 06:11 1.7M
20260426T00Z_MSC_CAPS_RelativeHumidity_IsbL-0350_RLatLon0.03_PT020H.grib2 2026-04-26 06:11 2.0M
20260426T00Z_MSC_CAPS_RelativeHumidity_IsbL-0400_RLatLon0.03_PT020H.grib2 2026-04-26 06:11 2.1M
20260426T00Z_MSC_CAPS_RelativeHumidity_IsbL-0450_RLatLon0.03_PT020H.grib2 2026-04-26 06:11 2.0M
20260426T00Z_MSC_CAPS_RelativeHumidity_IsbL-0500_RLatLon0.03_PT020H.grib2 2026-04-26 06:11 2.0M
20260426T00Z_MSC_CAPS_RelativeHumidity_IsbL-0550_RLatLon0.03_PT020H.grib2 2026-04-26 06:11 2.2M
20260426T00Z_MSC_CAPS_RelativeHumidity_IsbL-0600_RLatLon0.03_PT020H.grib2 2026-04-26 06:11 2.2M
20260426T00Z_MSC_CAPS_RelativeHumidity_IsbL-0650_RLatLon0.03_PT020H.grib2 2026-04-26 06:11 2.3M
20260426T00Z_MSC_CAPS_RelativeHumidity_IsbL-0700_RLatLon0.03_PT020H.grib2 2026-04-26 06:11 2.3M
20260426T00Z_MSC_CAPS_RelativeHumidity_IsbL-0750_RLatLon0.03_PT020H.grib2 2026-04-26 06:11 2.4M
20260426T00Z_MSC_CAPS_RelativeHumidity_IsbL-0800_RLatLon0.03_PT020H.grib2 2026-04-26 06:11 2.4M
20260426T00Z_MSC_CAPS_RelativeHumidity_IsbL-0850_RLatLon0.03_PT020H.grib2 2026-04-26 06:11 2.5M
20260426T00Z_MSC_CAPS_RelativeHumidity_IsbL-0875_RLatLon0.03_PT020H.grib2 2026-04-26 06:11 2.5M
20260426T00Z_MSC_CAPS_RelativeHumidity_IsbL-0900_RLatLon0.03_PT020H.grib2 2026-04-26 06:11 2.6M
20260426T00Z_MSC_CAPS_RelativeHumidity_IsbL-0925_RLatLon0.03_PT020H.grib2 2026-04-26 06:11 2.7M
20260426T00Z_MSC_CAPS_RelativeHumidity_IsbL-0950_RLatLon0.03_PT020H.grib2 2026-04-26 06:11 2.7M
20260426T00Z_MSC_CAPS_RelativeHumidity_IsbL-0970_RLatLon0.03_PT020H.grib2 2026-04-26 06:11 2.8M
20260426T00Z_MSC_CAPS_RelativeHumidity_IsbL-0985_RLatLon0.03_PT020H.grib2 2026-04-26 06:11 2.9M
20260426T00Z_MSC_CAPS_RelativeHumidity_IsbL-1000_RLatLon0.03_PT020H.grib2 2026-04-26 06:11 2.9M
20260426T00Z_MSC_CAPS_RelativeHumidity_IsbL-1015_RLatLon0.03_PT020H.grib2 2026-04-26 06:11 3.0M
20260426T00Z_MSC_CAPS_Runoff-Accum_Sfc_RLatLon0.03_PT020H.grib2 2026-04-26 06:11 293K
20260426T00Z_MSC_CAPS_SeaIceAreaFraction_Sfc_RLatLon0.03_PT020H.nc 2026-04-26 06:11 15M
20260426T00Z_MSC_CAPS_SeaIceCompressiveStrength_Sfc_RLatLon0.03_PT020H.nc 2026-04-26 06:11 15M
20260426T00Z_MSC_CAPS_SeaIceDivergence_Sfc_RLatLon0.03_PT020H.nc 2026-04-26 06:11 15M
20260426T00Z_MSC_CAPS_SeaIceInternalPressure_Sfc_RLatLon0.03_PT020H.nc 2026-04-26 06:11 15M
20260426T00Z_MSC_CAPS_SeaIceShear_Sfc_RLatLon0.03_PT020H.nc 2026-04-26 06:11 14M
20260426T00Z_MSC_CAPS_SeaIceSnowTemp_Sfc_RLatLon0.03_PT020H.nc 2026-04-26 06:11 15M
20260426T00Z_MSC_CAPS_SeaIceSnowVolume_Sfc_RLatLon0.03_PT020H.nc 2026-04-26 06:11 15M
20260426T00Z_MSC_CAPS_SeaIceVelocityX_Sfc_RLatLon0.03_PT020H.nc 2026-04-26 06:11 15M
20260426T00Z_MSC_CAPS_SeaIceVelocityY_Sfc_RLatLon0.03_PT020H.nc 2026-04-26 06:11 15M
20260426T00Z_MSC_CAPS_SeaIceVolume_Sfc_RLatLon0.03_PT020H.nc 2026-04-26 06:11 15M
20260426T00Z_MSC_CAPS_SeaSurfaceHeight_Sfc_RLatLon0.03_PT020H.nc 2026-04-26 06:11 16M
20260426T00Z_MSC_CAPS_SeaWaterSalinity_DBS-0.5m_RLatLon0.03_PT020H.nc 2026-04-26 06:11 16M
20260426T00Z_MSC_CAPS_SeaWaterSalinity_DBS-all_RLatLon0.03_PT020H.nc 2026-04-26 06:11 107M
20260426T00Z_MSC_CAPS_SeaWaterTemp_DBS-0.5m_RLatLon0.03_PT020H.nc 2026-04-26 06:11 14M
20260426T00Z_MSC_CAPS_SeaWaterTemp_DBS-all_RLatLon0.03_PT020H.nc 2026-04-26 06:11 87M
20260426T00Z_MSC_CAPS_SeaWaterVelocityX_DBS-0.5m_RLatLon0.03_PT020H.nc 2026-04-26 06:11 17M
20260426T00Z_MSC_CAPS_SeaWaterVelocityX_DBS-all_RLatLon0.03_PT020H.nc 2026-04-26 06:11 210M
20260426T00Z_MSC_CAPS_SeaWaterVelocityY_DBS-0.5m_RLatLon0.03_PT020H.nc 2026-04-26 06:11 18M
20260426T00Z_MSC_CAPS_SeaWaterVelocityY_DBS-all_RLatLon0.03_PT020H.nc 2026-04-26 06:11 214M
20260426T00Z_MSC_CAPS_SensibleHeatNetFlux_Sfc_RLatLon0.03_PT020H.grib2 2026-04-26 06:11 2.3M
20260426T00Z_MSC_CAPS_ShowalterIndex_IsbL-0500_RLatLon0.03_PT020H.grib2 2026-04-26 06:11 4.3M
20260426T00Z_MSC_CAPS_Snow-Accum_Sfc_RLatLon0.03_PT020H.grib2 2026-04-26 06:11 3.7M
20260426T00Z_MSC_CAPS_SnowDensity_Sfc_RLatLon0.03_PT020H.grib2 2026-04-26 06:11 1.3M
20260426T00Z_MSC_CAPS_SnowDepthWaterEquivalent_Sfc_RLatLon0.03_PT020H.grib2 2026-04-26 06:11 721K
20260426T00Z_MSC_CAPS_SnowDepth_Sfc_RLatLon0.03_PT020H.grib2 2026-04-26 06:11 1.3M
20260426T00Z_MSC_CAPS_SoilTemp_DBS-0to10cm_RLatLon0.03_PT020H.grib2 2026-04-26 06:11 1.6M
20260426T00Z_MSC_CAPS_SoilTemp_Sfc_RLatLon0.03_PT020H.grib2 2026-04-26 06:11 1.8M
20260426T00Z_MSC_CAPS_SoilVolumetricIceContent_Sfc_RLatLon0.03_PT020H.grib2 2026-04-26 06:11 1.4M
20260426T00Z_MSC_CAPS_SoilVolumetricWaterContent_DBS-0to10cm_RLatLon0.03_PT020H.grib2 2026-04-26 06:11 1.1M
20260426T00Z_MSC_CAPS_SoilVolumetricWaterContent_DBS-0to1cm_RLatLon0.03_PT020H.grib2 2026-04-26 06:11 1.7M
20260426T00Z_MSC_CAPS_SpecificHumidity_AGL-120m_RLatLon0.03_PT020H.grib2 2026-04-26 06:11 1.8M
20260426T00Z_MSC_CAPS_SpecificHumidity_AGL-2m_RLatLon0.03_PT020H.grib2 2026-04-26 06:11 2.0M
20260426T00Z_MSC_CAPS_SpecificHumidity_AGL-40m_RLatLon0.03_PT020H.grib2 2026-04-26 06:11 1.8M
20260426T00Z_MSC_CAPS_SpecificHumidity_AGL-80m_RLatLon0.03_PT020H.grib2 2026-04-26 06:11 1.8M
20260426T00Z_MSC_CAPS_SpecificHumidity_IsbL-0050_RLatLon0.03_PT020H.grib2 2026-04-26 06:11 918K
20260426T00Z_MSC_CAPS_SpecificHumidity_IsbL-0100_RLatLon0.03_PT020H.grib2 2026-04-26 06:11 796K
20260426T00Z_MSC_CAPS_SpecificHumidity_IsbL-0150_RLatLon0.03_PT020H.grib2 2026-04-26 06:11 885K
20260426T00Z_MSC_CAPS_SpecificHumidity_IsbL-0175_RLatLon0.03_PT020H.grib2 2026-04-26 06:11 1.0M
20260426T00Z_MSC_CAPS_SpecificHumidity_IsbL-0200_RLatLon0.03_PT020H.grib2 2026-04-26 06:11 869K
20260426T00Z_MSC_CAPS_SpecificHumidity_IsbL-0225_RLatLon0.03_PT020H.grib2 2026-04-26 06:11 1.0M
20260426T00Z_MSC_CAPS_SpecificHumidity_IsbL-0250_RLatLon0.03_PT020H.grib2 2026-04-26 06:11 1.0M
20260426T00Z_MSC_CAPS_SpecificHumidity_IsbL-0275_RLatLon0.03_PT020H.grib2 2026-04-26 06:11 1.1M
20260426T00Z_MSC_CAPS_SpecificHumidity_IsbL-0300_RLatLon0.03_PT020H.grib2 2026-04-26 06:11 1.0M
20260426T00Z_MSC_CAPS_SpecificHumidity_IsbL-0350_RLatLon0.03_PT020H.grib2 2026-04-26 06:11 954K
20260426T00Z_MSC_CAPS_SpecificHumidity_IsbL-0400_RLatLon0.03_PT020H.grib2 2026-04-26 06:11 958K
20260426T00Z_MSC_CAPS_SpecificHumidity_IsbL-0450_RLatLon0.03_PT020H.grib2 2026-04-26 06:11 1.1M
20260426T00Z_MSC_CAPS_SpecificHumidity_IsbL-0500_RLatLon0.03_PT020H.grib2 2026-04-26 06:11 1.3M
20260426T00Z_MSC_CAPS_SpecificHumidity_IsbL-0550_RLatLon0.03_PT020H.grib2 2026-04-26 06:11 1.2M
20260426T00Z_MSC_CAPS_SpecificHumidity_IsbL-0600_RLatLon0.03_PT020H.grib2 2026-04-26 06:11 1.4M
20260426T00Z_MSC_CAPS_SpecificHumidity_IsbL-0650_RLatLon0.03_PT020H.grib2 2026-04-26 06:11 1.6M
20260426T00Z_MSC_CAPS_SpecificHumidity_IsbL-0700_RLatLon0.03_PT020H.grib2 2026-04-26 06:11 1.6M
20260426T00Z_MSC_CAPS_SpecificHumidity_IsbL-0750_RLatLon0.03_PT020H.grib2 2026-04-26 06:11 1.4M
20260426T00Z_MSC_CAPS_SpecificHumidity_IsbL-0800_RLatLon0.03_PT020H.grib2 2026-04-26 06:11 1.5M
20260426T00Z_MSC_CAPS_SpecificHumidity_IsbL-0850_RLatLon0.03_PT020H.grib2 2026-04-26 06:11 1.6M
20260426T00Z_MSC_CAPS_SpecificHumidity_IsbL-0875_RLatLon0.03_PT020H.grib2 2026-04-26 06:11 1.7M
20260426T00Z_MSC_CAPS_SpecificHumidity_IsbL-0900_RLatLon0.03_PT020H.grib2 2026-04-26 06:11 1.8M
20260426T00Z_MSC_CAPS_SpecificHumidity_IsbL-0925_RLatLon0.03_PT020H.grib2 2026-04-26 06:11 1.8M
20260426T00Z_MSC_CAPS_SpecificHumidity_IsbL-0950_RLatLon0.03_PT020H.grib2 2026-04-26 06:11 1.9M
20260426T00Z_MSC_CAPS_SpecificHumidity_IsbL-0970_RLatLon0.03_PT020H.grib2 2026-04-26 06:11 1.9M
20260426T00Z_MSC_CAPS_SpecificHumidity_IsbL-0985_RLatLon0.03_PT020H.grib2 2026-04-26 06:11 2.0M
20260426T00Z_MSC_CAPS_SpecificHumidity_IsbL-1000_RLatLon0.03_PT020H.grib2 2026-04-26 06:11 2.0M
20260426T00Z_MSC_CAPS_SpecificHumidity_IsbL-1015_RLatLon0.03_PT020H.grib2 2026-04-26 06:11 2.0M
20260426T00Z_MSC_CAPS_SpecificHumidity_Sfc_RLatLon0.03_PT020H.grib2 2026-04-26 06:11 2.0M
20260426T00Z_MSC_CAPS_StormRelativeHelicity_Sfc_RLatLon0.03_PT020H.grib2 2026-04-26 06:11 2.7M
20260426T00Z_MSC_CAPS_Thickness_IsbL-1000to0500_RLatLon0.03_PT020H.grib2 2026-04-26 06:11 425K
20260426T00Z_MSC_CAPS_TotalCloudCover_Sfc_RLatLon0.03_PT020H.grib2 2026-04-26 06:11 3.6M
20260426T00Z_MSC_CAPS_TurboclineDepth_Sfc_RLatLon0.03_PT020H.nc 2026-04-26 06:11 16M
20260426T00Z_MSC_CAPS_UpwardLongwaveRadiationFlux_NTAtm_RLatLon0.03_PT020H.grib2 2026-04-26 06:11 2.9M
20260426T00Z_MSC_CAPS_UpwardShortwaveRadiationFlux_NTAtm_RLatLon0.03_PT020H.grib2 2026-04-26 06:11 2.5M
20260426T00Z_MSC_CAPS_VerticalVelocity_IsbL-0250_RLatLon0.03_PT020H.grib2 2026-04-26 06:11 859K
20260426T00Z_MSC_CAPS_VerticalVelocity_IsbL-0500_RLatLon0.03_PT020H.grib2 2026-04-26 06:11 1.0M
20260426T00Z_MSC_CAPS_VerticalVelocity_IsbL-0700_RLatLon0.03_PT020H.grib2 2026-04-26 06:11 1.2M
20260426T00Z_MSC_CAPS_VerticalVelocity_IsbL-0850_RLatLon0.03_PT020H.grib2 2026-04-26 06:11 1.4M
20260426T00Z_MSC_CAPS_VerticalVelocity_IsbL-1000_RLatLon0.03_PT020H.grib2 2026-04-26 06:11 1.4M
20260426T00Z_MSC_CAPS_WindDir_AGL-10m_RLatLon0.03_PT020H.grib2 2026-04-26 06:11 2.4M
20260426T00Z_MSC_CAPS_WindDir_AGL-120m_RLatLon0.03_PT020H.grib2 2026-04-26 06:11 1.3M
20260426T00Z_MSC_CAPS_WindDir_AGL-40m_RLatLon0.03_PT020H.grib2 2026-04-26 06:11 1.4M
20260426T00Z_MSC_CAPS_WindDir_AGL-80m_RLatLon0.03_PT020H.grib2 2026-04-26 06:11 1.3M
20260426T00Z_MSC_CAPS_WindDir_IsbL-0050_RLatLon0.03_PT020H.grib2 2026-04-26 06:11 1.0M
20260426T00Z_MSC_CAPS_WindDir_IsbL-0100_RLatLon0.03_PT020H.grib2 2026-04-26 06:11 1.0M
20260426T00Z_MSC_CAPS_WindDir_IsbL-0150_RLatLon0.03_PT020H.grib2 2026-04-26 06:11 1.1M
20260426T00Z_MSC_CAPS_WindDir_IsbL-0175_RLatLon0.03_PT020H.grib2 2026-04-26 06:11 1.0M
20260426T00Z_MSC_CAPS_WindDir_IsbL-0200_RLatLon0.03_PT020H.grib2 2026-04-26 06:11 1.1M
20260426T00Z_MSC_CAPS_WindDir_IsbL-0225_RLatLon0.03_PT020H.grib2 2026-04-26 06:11 1.1M
20260426T00Z_MSC_CAPS_WindDir_IsbL-0250_RLatLon0.03_PT020H.grib2 2026-04-26 06:11 1.1M
20260426T00Z_MSC_CAPS_WindDir_IsbL-0275_RLatLon0.03_PT020H.grib2 2026-04-26 06:11 1.1M
20260426T00Z_MSC_CAPS_WindDir_IsbL-0300_RLatLon0.03_PT020H.grib2 2026-04-26 06:11 1.1M
20260426T00Z_MSC_CAPS_WindDir_IsbL-0350_RLatLon0.03_PT020H.grib2 2026-04-26 06:11 1.1M
20260426T00Z_MSC_CAPS_WindDir_IsbL-0400_RLatLon0.03_PT020H.grib2 2026-04-26 06:11 1.2M
20260426T00Z_MSC_CAPS_WindDir_IsbL-0450_RLatLon0.03_PT020H.grib2 2026-04-26 06:11 1.2M
20260426T00Z_MSC_CAPS_WindDir_IsbL-0500_RLatLon0.03_PT020H.grib2 2026-04-26 06:11 1.2M
20260426T00Z_MSC_CAPS_WindDir_IsbL-0550_RLatLon0.03_PT020H.grib2 2026-04-26 06:11 1.3M
20260426T00Z_MSC_CAPS_WindDir_IsbL-0600_RLatLon0.03_PT020H.grib2 2026-04-26 06:11 1.3M
20260426T00Z_MSC_CAPS_WindDir_IsbL-0650_RLatLon0.03_PT020H.grib2 2026-04-26 06:11 1.4M
20260426T00Z_MSC_CAPS_WindDir_IsbL-0700_RLatLon0.03_PT020H.grib2 2026-04-26 06:11 1.4M
20260426T00Z_MSC_CAPS_WindDir_IsbL-0750_RLatLon0.03_PT020H.grib2 2026-04-26 06:11 1.6M
20260426T00Z_MSC_CAPS_WindDir_IsbL-0800_RLatLon0.03_PT020H.grib2 2026-04-26 06:11 1.7M
20260426T00Z_MSC_CAPS_WindDir_IsbL-0850_RLatLon0.03_PT020H.grib2 2026-04-26 06:11 1.8M
20260426T00Z_MSC_CAPS_WindDir_IsbL-0875_RLatLon0.03_PT020H.grib2 2026-04-26 06:11 1.9M
20260426T00Z_MSC_CAPS_WindDir_IsbL-0900_RLatLon0.03_PT020H.grib2 2026-04-26 06:11 2.0M
20260426T00Z_MSC_CAPS_WindDir_IsbL-0925_RLatLon0.03_PT020H.grib2 2026-04-26 06:11 2.1M
20260426T00Z_MSC_CAPS_WindDir_IsbL-0950_RLatLon0.03_PT020H.grib2 2026-04-26 06:11 2.1M
20260426T00Z_MSC_CAPS_WindDir_IsbL-0970_RLatLon0.03_PT020H.grib2 2026-04-26 06:11 2.1M
20260426T00Z_MSC_CAPS_WindDir_IsbL-0985_RLatLon0.03_PT020H.grib2 2026-04-26 06:11 2.2M
20260426T00Z_MSC_CAPS_WindDir_IsbL-1000_RLatLon0.03_PT020H.grib2 2026-04-26 06:11 2.3M
20260426T00Z_MSC_CAPS_WindDir_IsbL-1015_RLatLon0.03_PT020H.grib2 2026-04-26 06:11 2.3M
20260426T00Z_MSC_CAPS_WindGust-Max_AGL-10m_RLatLon0.03_PT020H.grib2 2026-04-26 06:11 2.3M
20260426T00Z_MSC_CAPS_WindGust-Min_AGL-10m_RLatLon0.03_PT020H.grib2 2026-04-26 06:11 2.5M
20260426T00Z_MSC_CAPS_WindGust_AGL-10m_RLatLon0.03_PT020H.grib2 2026-04-26 06:11 2.5M
20260426T00Z_MSC_CAPS_WindSpeed_AGL-10m_RLatLon0.03_PT020H.grib2 2026-04-26 06:11 2.1M
20260426T00Z_MSC_CAPS_WindSpeed_AGL-120m_RLatLon0.03_PT020H.grib2 2026-04-26 06:11 1.2M
20260426T00Z_MSC_CAPS_WindSpeed_AGL-40m_RLatLon0.03_PT020H.grib2 2026-04-26 06:11 1.3M
20260426T00Z_MSC_CAPS_WindSpeed_AGL-80m_RLatLon0.03_PT020H.grib2 2026-04-26 06:11 1.2M
20260426T00Z_MSC_CAPS_WindSpeed_IsbL-0050_RLatLon0.03_PT020H.grib2 2026-04-26 06:11 1.1M
20260426T00Z_MSC_CAPS_WindSpeed_IsbL-0100_RLatLon0.03_PT020H.grib2 2026-04-26 06:11 1.1M
20260426T00Z_MSC_CAPS_WindSpeed_IsbL-0150_RLatLon0.03_PT020H.grib2 2026-04-26 06:11 1.0M
20260426T00Z_MSC_CAPS_WindSpeed_IsbL-0175_RLatLon0.03_PT020H.grib2 2026-04-26 06:11 1.1M
20260426T00Z_MSC_CAPS_WindSpeed_IsbL-0200_RLatLon0.03_PT020H.grib2 2026-04-26 06:11 1.1M
20260426T00Z_MSC_CAPS_WindSpeed_IsbL-0225_RLatLon0.03_PT020H.grib2 2026-04-26 06:11 938K
20260426T00Z_MSC_CAPS_WindSpeed_IsbL-0250_RLatLon0.03_PT020H.grib2 2026-04-26 06:11 959K
20260426T00Z_MSC_CAPS_WindSpeed_IsbL-0275_RLatLon0.03_PT020H.grib2 2026-04-26 06:11 968K
20260426T00Z_MSC_CAPS_WindSpeed_IsbL-0300_RLatLon0.03_PT020H.grib2 2026-04-26 06:11 1.0M
20260426T00Z_MSC_CAPS_WindSpeed_IsbL-0350_RLatLon0.03_PT020H.grib2 2026-04-26 06:11 1.0M
20260426T00Z_MSC_CAPS_WindSpeed_IsbL-0400_RLatLon0.03_PT020H.grib2 2026-04-26 06:11 1.0M
20260426T00Z_MSC_CAPS_WindSpeed_IsbL-0450_RLatLon0.03_PT020H.grib2 2026-04-26 06:11 1.0M
20260426T00Z_MSC_CAPS_WindSpeed_IsbL-0500_RLatLon0.03_PT020H.grib2 2026-04-26 06:11 1.3M
20260426T00Z_MSC_CAPS_WindSpeed_IsbL-0550_RLatLon0.03_PT020H.grib2 2026-04-26 06:11 1.5M
20260426T00Z_MSC_CAPS_WindSpeed_IsbL-0600_RLatLon0.03_PT020H.grib2 2026-04-26 06:11 1.4M
20260426T00Z_MSC_CAPS_WindSpeed_IsbL-0650_RLatLon0.03_PT020H.grib2 2026-04-26 06:11 1.4M
20260426T00Z_MSC_CAPS_WindSpeed_IsbL-0700_RLatLon0.03_PT020H.grib2 2026-04-26 06:11 1.5M
20260426T00Z_MSC_CAPS_WindSpeed_IsbL-0750_RLatLon0.03_PT020H.grib2 2026-04-26 06:11 1.5M
20260426T00Z_MSC_CAPS_WindSpeed_IsbL-0800_RLatLon0.03_PT020H.grib2 2026-04-26 06:11 1.6M
20260426T00Z_MSC_CAPS_WindSpeed_IsbL-0850_RLatLon0.03_PT020H.grib2 2026-04-26 06:11 1.7M
20260426T00Z_MSC_CAPS_WindSpeed_IsbL-0875_RLatLon0.03_PT020H.grib2 2026-04-26 06:11 1.8M
20260426T00Z_MSC_CAPS_WindSpeed_IsbL-0900_RLatLon0.03_PT020H.grib2 2026-04-26 06:11 1.9M
20260426T00Z_MSC_CAPS_WindSpeed_IsbL-0925_RLatLon0.03_PT020H.grib2 2026-04-26 06:11 1.8M
20260426T00Z_MSC_CAPS_WindSpeed_IsbL-0950_RLatLon0.03_PT020H.grib2 2026-04-26 06:11 1.8M
20260426T00Z_MSC_CAPS_WindSpeed_IsbL-0970_RLatLon0.03_PT020H.grib2 2026-04-26 06:11 2.0M
20260426T00Z_MSC_CAPS_WindSpeed_IsbL-0985_RLatLon0.03_PT020H.grib2 2026-04-26 06:11 2.0M
20260426T00Z_MSC_CAPS_WindSpeed_IsbL-1000_RLatLon0.03_PT020H.grib2 2026-04-26 06:11 2.1M
20260426T00Z_MSC_CAPS_WindSpeed_IsbL-1015_RLatLon0.03_PT020H.grib2 2026-04-26 06:11 2.1M
20260426T00Z_MSC_CAPS_WindU_AGL-10m_RLatLon0.03_PT020H.grib2 2026-04-26 06:11 2.0M
20260426T00Z_MSC_CAPS_WindU_AGL-120m_RLatLon0.03_PT020H.grib2 2026-04-26 06:11 1.2M
20260426T00Z_MSC_CAPS_WindU_AGL-40m_RLatLon0.03_PT020H.grib2 2026-04-26 06:11 1.2M
20260426T00Z_MSC_CAPS_WindU_AGL-80m_RLatLon0.03_PT020H.grib2 2026-04-26 06:11 1.2M
20260426T00Z_MSC_CAPS_WindU_IsbL-0050_RLatLon0.03_PT020H.grib2 2026-04-26 06:11 762K
20260426T00Z_MSC_CAPS_WindU_IsbL-0100_RLatLon0.03_PT020H.grib2 2026-04-26 06:11 785K
20260426T00Z_MSC_CAPS_WindU_IsbL-0150_RLatLon0.03_PT020H.grib2 2026-04-26 06:11 907K
20260426T00Z_MSC_CAPS_WindU_IsbL-0175_RLatLon0.03_PT020H.grib2 2026-04-26 06:11 715K
20260426T00Z_MSC_CAPS_WindU_IsbL-0200_RLatLon0.03_PT020H.grib2 2026-04-26 06:11 858K
20260426T00Z_MSC_CAPS_WindU_IsbL-0225_RLatLon0.03_PT020H.grib2 2026-04-26 06:11 875K
20260426T00Z_MSC_CAPS_WindU_IsbL-0250_RLatLon0.03_PT020H.grib2 2026-04-26 06:11 899K
20260426T00Z_MSC_CAPS_WindU_IsbL-0275_RLatLon0.03_PT020H.grib2 2026-04-26 06:11 703K
20260426T00Z_MSC_CAPS_WindU_IsbL-0300_RLatLon0.03_PT020H.grib2 2026-04-26 06:11 713K
20260426T00Z_MSC_CAPS_WindU_IsbL-0350_RLatLon0.03_PT020H.grib2 2026-04-26 06:11 724K
20260426T00Z_MSC_CAPS_WindU_IsbL-0400_RLatLon0.03_PT020H.grib2 2026-04-26 06:11 940K
20260426T00Z_MSC_CAPS_WindU_IsbL-0450_RLatLon0.03_PT020H.grib2 2026-04-26 06:11 958K
20260426T00Z_MSC_CAPS_WindU_IsbL-0500_RLatLon0.03_PT020H.grib2 2026-04-26 06:11 1.0M
20260426T00Z_MSC_CAPS_WindU_IsbL-0550_RLatLon0.03_PT020H.grib2 2026-04-26 06:11 1.0M
20260426T00Z_MSC_CAPS_WindU_IsbL-0600_RLatLon0.03_PT020H.grib2 2026-04-26 06:11 930K
20260426T00Z_MSC_CAPS_WindU_IsbL-0650_RLatLon0.03_PT020H.grib2 2026-04-26 06:11 966K
20260426T00Z_MSC_CAPS_WindU_IsbL-0700_RLatLon0.03_PT020H.grib2 2026-04-26 06:11 1.0M
20260426T00Z_MSC_CAPS_WindU_IsbL-0750_RLatLon0.03_PT020H.grib2 2026-04-26 06:11 1.0M
20260426T00Z_MSC_CAPS_WindU_IsbL-0800_RLatLon0.03_PT020H.grib2 2026-04-26 06:11 1.4M
20260426T00Z_MSC_CAPS_WindU_IsbL-0850_RLatLon0.03_PT020H.grib2 2026-04-26 06:11 1.2M
20260426T00Z_MSC_CAPS_WindU_IsbL-0875_RLatLon0.03_PT020H.grib2 2026-04-26 06:11 1.2M
20260426T00Z_MSC_CAPS_WindU_IsbL-0900_RLatLon0.03_PT020H.grib2 2026-04-26 06:11 1.3M
20260426T00Z_MSC_CAPS_WindU_IsbL-0925_RLatLon0.03_PT020H.grib2 2026-04-26 06:11 1.3M
20260426T00Z_MSC_CAPS_WindU_IsbL-0950_RLatLon0.03_PT020H.grib2 2026-04-26 06:11 1.7M
20260426T00Z_MSC_CAPS_WindU_IsbL-0970_RLatLon0.03_PT020H.grib2 2026-04-26 06:11 1.7M
20260426T00Z_MSC_CAPS_WindU_IsbL-0985_RLatLon0.03_PT020H.grib2 2026-04-26 06:11 1.8M
20260426T00Z_MSC_CAPS_WindU_IsbL-1000_RLatLon0.03_PT020H.grib2 2026-04-26 06:11 1.8M
20260426T00Z_MSC_CAPS_WindU_IsbL-1015_RLatLon0.03_PT020H.grib2 2026-04-26 06:11 2.0M
20260426T00Z_MSC_CAPS_WindV_AGL-10m_RLatLon0.03_PT020H.grib2 2026-04-26 06:11 1.9M
20260426T00Z_MSC_CAPS_WindV_AGL-120m_RLatLon0.03_PT020H.grib2 2026-04-26 06:11 904K
20260426T00Z_MSC_CAPS_WindV_AGL-40m_RLatLon0.03_PT020H.grib2 2026-04-26 06:11 1.2M
20260426T00Z_MSC_CAPS_WindV_AGL-80m_RLatLon0.03_PT020H.grib2 2026-04-26 06:11 907K
20260426T00Z_MSC_CAPS_WindV_IsbL-0050_RLatLon0.03_PT020H.grib2 2026-04-26 06:11 764K
20260426T00Z_MSC_CAPS_WindV_IsbL-0100_RLatLon0.03_PT020H.grib2 2026-04-26 06:11 785K
20260426T00Z_MSC_CAPS_WindV_IsbL-0150_RLatLon0.03_PT020H.grib2 2026-04-26 06:11 906K
20260426T00Z_MSC_CAPS_WindV_IsbL-0175_RLatLon0.03_PT020H.grib2 2026-04-26 06:11 716K
20260426T00Z_MSC_CAPS_WindV_IsbL-0200_RLatLon0.03_PT020H.grib2 2026-04-26 06:11 732K
20260426T00Z_MSC_CAPS_WindV_IsbL-0225_RLatLon0.03_PT020H.grib2 2026-04-26 06:11 875K
20260426T00Z_MSC_CAPS_WindV_IsbL-0250_RLatLon0.03_PT020H.grib2 2026-04-26 06:11 691K
20260426T00Z_MSC_CAPS_WindV_IsbL-0275_RLatLon0.03_PT020H.grib2 2026-04-26 06:11 700K
20260426T00Z_MSC_CAPS_WindV_IsbL-0300_RLatLon0.03_PT020H.grib2 2026-04-26 06:11 708K
20260426T00Z_MSC_CAPS_WindV_IsbL-0350_RLatLon0.03_PT020H.grib2 2026-04-26 06:11 933K
20260426T00Z_MSC_CAPS_WindV_IsbL-0400_RLatLon0.03_PT020H.grib2 2026-04-26 06:11 941K
20260426T00Z_MSC_CAPS_WindV_IsbL-0450_RLatLon0.03_PT020H.grib2 2026-04-26 06:11 959K
20260426T00Z_MSC_CAPS_WindV_IsbL-0500_RLatLon0.03_PT020H.grib2 2026-04-26 06:11 868K
20260426T00Z_MSC_CAPS_WindV_IsbL-0550_RLatLon0.03_PT020H.grib2 2026-04-26 06:11 904K
20260426T00Z_MSC_CAPS_WindV_IsbL-0600_RLatLon0.03_PT020H.grib2 2026-04-26 06:11 1.2M
20260426T00Z_MSC_CAPS_WindV_IsbL-0650_RLatLon0.03_PT020H.grib2 2026-04-26 06:11 1.2M
20260426T00Z_MSC_CAPS_WindV_IsbL-0700_RLatLon0.03_PT020H.grib2 2026-04-26 06:11 1.0M
20260426T00Z_MSC_CAPS_WindV_IsbL-0750_RLatLon0.03_PT020H.grib2 2026-04-26 06:11 1.0M
20260426T00Z_MSC_CAPS_WindV_IsbL-0800_RLatLon0.03_PT020H.grib2 2026-04-26 06:11 1.1M
20260426T00Z_MSC_CAPS_WindV_IsbL-0850_RLatLon0.03_PT020H.grib2 2026-04-26 06:11 1.2M
20260426T00Z_MSC_CAPS_WindV_IsbL-0875_RLatLon0.03_PT020H.grib2 2026-04-26 06:11 1.2M
20260426T00Z_MSC_CAPS_WindV_IsbL-0900_RLatLon0.03_PT020H.grib2 2026-04-26 06:11 1.3M
20260426T00Z_MSC_CAPS_WindV_IsbL-0925_RLatLon0.03_PT020H.grib2 2026-04-26 06:11 1.4M
20260426T00Z_MSC_CAPS_WindV_IsbL-0950_RLatLon0.03_PT020H.grib2 2026-04-26 06:11 1.3M
20260426T00Z_MSC_CAPS_WindV_IsbL-0970_RLatLon0.03_PT020H.grib2 2026-04-26 06:11 1.4M
20260426T00Z_MSC_CAPS_WindV_IsbL-0985_RLatLon0.03_PT020H.grib2 2026-04-26 06:11 1.4M
20260426T00Z_MSC_CAPS_WindV_IsbL-1000_RLatLon0.03_PT020H.grib2 2026-04-26 06:11 1.8M
20260426T00Z_MSC_CAPS_WindV_IsbL-1015_RLatLon0.03_PT020H.grib2 2026-04-26 06:11 1.9M